User: anonymous   Login
Location: ??????????
(42.1626°N, 44.1160°E)
Time: 15:07:54
(UTC+00:00)
Language:

Cosmos 1844 - Orbit

View from above orbital plane
View from above orbital plane
View from above satellite
View from above satellite

Ground track
Ground track

The orbit data is extracted from the following two-line orbital elements,

1 17973U 87041A   21125.85081054  .00000358  00000-0  21242-3 0  9999
2 17973  70.8976 163.5296 0030439 160.8817 199.3455 14.14119458753490
Epoch (UTC): 05 May 2021 20:25:10
Eccentricity: 0.0030439
inclination: 70.8976°
perigee height: 823 km
apogee height: 867 km
right ascension of ascending node: 163.5296°
argument of perigee: 160.8817°
revolutions per day: 14.14119458
mean anomaly at epoch: 199.3455°
orbit number at epoch: 75349

The dashed part of the orbit path shows where the satellite is in the earth's shadow,  

DLR